Weather Roundup
Issued by NWS

Home | Current Version | Previous Version | Graphics & Text | Print | Product List | Glossary Off
Versions: 1 2 3 4 5 6 7 8 9 10 11 12 13 14 15 16 17 18 19 20 21 22 23 24 25 26 27 28 29 30 31 32 33 34 35 36 37 38 39 40 41 42 43 44 45 46 47 48 49 50

000
NZUS93 KARX 292010
HRRWXR

CURRENT HOURLY OBSERVATIONS ACROSS
MUCH OF THE UPPER MISSISSIPPI VALLEY
NATIONAL WEATHER SERVICE LA CROSSE WI
300 PM CDT FRI MAY 29 2015


...SOUTHEAST MINNESOTA...


CITY           SKY/WX    TMP DP  RH WIND       PRES   REMARKS
ROCHESTER      CLOUDY    68  62  81 N14       29.91R
ROCHESTER/MAYO CLOUDY    65  65 100 NW6       29.90S
WINONA         CLOUDY    75  64  69 N3        29.88S
AUSTIN         CLOUDY    70  64  83 W9        29.90S
ALBERT LEA     CLOUDY    72  64  78 SW6       29.90S
DODGE CENTER   TSTM      63  61  94 N8        29.91S
PRESTON        CLOUDY    72  63  72 SW7       29.91F
OWATONNA       HVY RAIN  66  64  94 N6        29.91R
FARIBAULT      CLOUDY    66  64  94 CALM      29.90F
$$

...ELSEWHERE IN MINNESOTA...


CITY           SKY/WX    TMP DP  RH WIND       PRES   REMARKS
MINNEAPOLIS    RAIN      66  64  93 N8        29.90S FOG
INTNL FALLS    CLOUDY    52  42  69 NW17G23   30.06R
DULUTH         LGT RAIN  61  55  81 N9        29.93S
RED WING       RAIN      70  64  83 W6        29.89S
REDWOOD FALLS  LGT RAIN  61  60  97 NW12G20   29.94R
MANKATO        CLOUDY    68  64  88 N8        29.90S
WORTHINGTON    CLOUDY    55  50  82 N24       29.95R
FAIRMONT       CLOUDY    68  61  77 N7        29.89S
$$

...SOUTHWEST WISCONSIN...


CITY           SKY/WX    TMP DP  RH WIND       PRES   REMARKS
LA CROSSE      CLOUDY    76  65  68 SW7       29.87F
PRAIRIE DU CHI PTSUNNY   79  62  55 S7        29.89F
BOSCOBEL       PTSUNNY   80  62  54 SW12      29.89F
LONE ROCK      PTSUNNY   78  68  71 SW9       29.89F
PLATTEVILLE    PTSUNNY   77  67  72 SW5       29.91F
FORT MC COY    CLOUDY    77  60  55 SW5       29.89F
CAMP DOUGLAS   CLOUDY    79  68  69 SW8       29.88F
VIROQUA        FAIR      77  63  61 S10       29.91F
WIS DELLS      CLOUDY    77  65  66 S6        29.90S
$$

...ELSEWHERE IN WISCONSIN...


CITY           SKY/WX    TMP DP  RH WIND       PRES   REMARKS
MILWAUKEE      CLOUDY    74  63  68 SE13      29.92F
MADISON        PTSUNNY   79  65  62 S17       29.90F
GREEN BAY      CLOUDY    78  65  63 SW10      29.89F
EAU CLAIRE     CLOUDY    71  64  78 SW6       29.88S
BLACK RVR FLS  FAIR      77  62  58 S7        29.87F
MEDFORD        CLOUDY    70  64  81 S3        29.90F
WAUSAU         CLOUDY    75  62  64 VRB6      29.87F
WIS RAPIDS     CLOUDY    79  60  52 S9        29.89F
MARSHFIELD     CLOUDY    77  63  61 W8        29.88F
RICE LAKE      CLOUDY    67  64  88 CALM      29.90F
$$

...NORTHEAST IOWA...


CITY           SKY/WX    TMP DP  RH WIND       PRES   REMARKS
DECORAH        CLOUDY    75  63  64 SW12G17   29.89F
MASON CITY     LGT RAIN  73  67  81 S8        29.90F
CHARLES CITY   CLOUDY    75  64  69 SW15G21   29.91S
OELWEIN        CLOUDY    79  63  57 SW16G22   29.91F
$$

...ELSEWHERE IN IOWA...


CITY           SKY/WX    TMP DP  RH WIND       PRES   REMARKS
DES MOINES     CLOUDY    73  62  68 SW17      29.92F
IOWA CITY      MOSUNNY   80  65  59 SW10      29.93F
FORT DODGE     CLOUDY    68  63  83 SW10G18   29.90F THUNDER
$$

...NORTHERN ILLINOIS...


CITY           SKY/WX    TMP DP  RH WIND       PRES   REMARKS
CHICAGO-OHARE  LGT RAIN  77  66  68 S18G25    29.93F
CHICAGO-MIDWAY PTSUNNY   82  68  62 S13       29.94F
MOLINE         MOSUNNY   81  67  62 SW14G22   29.92F
ROCKFORD       LGT RAIN  76  66  71 S13       29.93F
PEORIA         PTSUNNY   83  64  52 SW12      29.96S
$$

NOTE: "FAIR" INDICATES FEW OR NO CLOUDS BELOW 12,000 FEET WITH NO
SIGNIFICANT WEATHER AND/OR OBSTRUCTIONS TO VISIBILITY. WIND
SPEEDS ARE IN MILES-PER-HOUR.



USA.gov is the U.S. government's official web portal to all federal, state and local government web resources and services.